Wheeling, WV

1:46 AM EST on December 07, 2019 (GMT -0500)
Wheeling-Ohio County

Weather History for KHLG - October, 2019

Change the Weather History Date:

Thursday, October 31, 2019

  Actual Average Record
Temperature  
Mean Temperature 53 °F 48 °F  
Max Temperature 69 °F 57 °F 78 °F (1950)
Min Temperature 36 °F 40 °F 21 °F (1938)
Degree Days  
Heating Degree Days 12 17  
Month to date heating degree days 270 373  
Since 1 July heating degree days 271 474  
Cooling Degree Days 0 0  
Month to date cooling degree days 40 11  
Year to date cooling degree days 986 689  
Growing Degree Days 2 (Base 50)    
Moisture  
Dew Point 57 °F    
Average Humidity 85    
Maximum Humidity 97    
Minimum Humidity 73    
Precipitation  
Precipitation 1.39 in 0.07 in 1.39 in (2019)
Month to date precipitation 6.10 2.55  
Year to date precipitation 34.08 32.32  
Sea Level Pressure  
Sea Level Pressure 29.67 in    
Wind  
Wind Speed 16 mph (SSW)    
Max Wind Speed 33 mph    
Max Gust Speed 46 mph    
Visibility 6 miles    
Events Fog , Rain    
T = Trace of Precipitation, MM = Missing Value Source: NWS Daily Summary

Daily Weather History Graph

Daily Weather History Graph

Search for Another Location

Airport or City:

Astronomy

Oct. 31, 2019 Rise Set
Actual Time 7:50 AM EDT 6:21 PM EDT
Civil Twilight 7:22 AM EDT 6:49 PM EDT
Nautical Twilight 6:50 AM EDT 7:21 PM EDT
Astronomical Twilight 6:18 AM EDT 7:52 PM EDT
Moon 11:37 AM EDT (10/31) 9:16 PM EDT (10/31)
Length of Visible Light 11h 26m
Length of Day
10h 30m
Waxing Crescent, 15% of the Moon is Illuminated
Oct 31
Waxing Crescent
Nov 4
First Quarter
Nov 12
Full
Nov 19
Last Quarter
Nov 26
New

Hourly Weather History & Observations

Time (EDT) Temp. Windchill Dew Point Humidity Pressure Visibility Wind Dir Wind Speed Gust Speed Precip Events Conditions
12:53 AM 62.1 °F - 60.1 °F 93% 29.86 in 4.0 mi South 9.2 mph - 0.07 in Rain Light Rain
1:21 AM 62.1 °F - 60.1 °F 93% 29.86 in 4.0 mi South 8.1 mph - 0.04 in Rain Light Rain
1:34 AM 62.1 °F - 60.1 °F 93% 29.85 in 3.0 mi South 10.4 mph - 0.06 in Rain Light Rain
1:43 AM 62.1 °F - 60.1 °F 93% 29.84 in 4.0 mi South 9.2 mph - 0.07 in Rain Light Rain
1:53 AM 62.1 °F - 60.1 °F 93% 29.84 in 7.0 mi South 10.4 mph - 0.07 in Rain Light Rain
2:13 AM 62.1 °F - 60.1 °F 93% 29.84 in 4.0 mi South 8.1 mph - 0.00 in Rain Light Rain
2:23 AM 62.1 °F - 60.1 °F 93% 29.83 in 3.0 mi South 6.9 mph - 0.01 in Rain Light Rain
2:35 AM 62.1 °F - 60.1 °F 93% 29.82 in 3.0 mi SSE 6.9 mph - 0.01 in Rain Light Rain
2:53 AM 62.1 °F - 60.1 °F 93% 29.83 in 5.0 mi South 6.9 mph - 0.02 in Rain Light Rain
3:53 AM 63.0 °F - 61.0 °F 93% 29.81 in 10.0 mi SSW 13.8 mph - 0.00 in   Overcast
4:53 AM 63.0 °F - 61.0 °F 93% 29.78 in 7.0 mi SSW 10.4 mph - N/A   Overcast
5:07 AM 63.0 °F - 62.1 °F 97% 29.77 in 2.0 mi South 6.9 mph - N/A   Overcast
5:34 AM 63.0 °F - 62.1 °F 97% 29.76 in 3.0 mi South 8.1 mph - N/A   Overcast
5:53 AM 63.0 °F - 62.1 °F 97% 29.77 in 4.0 mi South 10.4 mph - N/A   Overcast
6:03 AM 63.0 °F - 62.1 °F 97% 29.77 in 7.0 mi SSW 11.5 mph - N/A   Overcast
6:53 AM 64.0 °F - 62.1 °F 93% 29.75 in 10.0 mi SSW 11.5 mph - N/A   Overcast
7:34 AM 64.0 °F - 62.1 °F 93% 29.74 in 2.5 mi SSW 6.9 mph - N/A   Overcast
7:41 AM 64.0 °F - 62.1 °F 93% 29.74 in 4.0 mi South 10.4 mph - 0.00 in Rain Light Rain
7:53 AM 64.0 °F - 62.1 °F 93% 29.74 in 10.0 mi South 10.4 mph - 0.00 in   Overcast
8:53 AM 64.0 °F - 62.1 °F 93% 29.71 in 10.0 mi South 8.1 mph - 0.00 in   Overcast
9:19 AM 64.0 °F - 62.1 °F 93% 29.70 in 5.0 mi SSE 8.1 mph - 0.03 in Rain Light Rain
9:38 AM 64.0 °F - 62.1 °F 93% 29.67 in 5.0 mi SE 9.2 mph - 0.05 in Rain Light Rain
9:53 AM 64.0 °F - 62.1 °F 93% 29.66 in 8.0 mi SSE 9.2 mph - 0.06 in Rain Light Rain
10:47 AM 64.4 °F - 62.6 °F 94% 29.62 in 2.0 mi SSE 13.8 mph - 0.07 in Rain Heavy Rain
10:53 AM 64.9 °F - 63.0 °F 93% 29.62 in 2.5 mi South 9.2 mph - 0.07 in Rain Light Rain
11:00 AM 66.0 °F - 63.0 °F 90% 29.61 in 10.0 mi South 12.7 mph 19.6 mph 0.00 in Rain Light Rain
11:53 AM 68.0 °F - 64.0 °F 87% 29.58 in 9.0 mi South 16.1 mph - 0.04 in Rain Light Rain
12:14 PM 66.9 °F - 64.0 °F 90% 29.58 in 2.0 mi South 12.7 mph - 0.07 in Rain Rain
12:24 PM 66.9 °F - 64.0 °F 90% 29.57 in 10.0 mi South 12.7 mph 21.9 mph 0.07 in Rain Light Rain
12:53 PM 69.1 °F - 64.0 °F 84% 29.52 in 10.0 mi South 21.9 mph 32.2 mph 0.08 in Rain Light Rain
1:25 PM 68.0 °F - 64.9 °F 90% 29.52 in 2.5 mi South 15.0 mph 23.0 mph 0.06 in Rain Rain
1:32 PM 66.9 °F - 64.9 °F 93% 29.51 in 1.8 mi SSW 11.5 mph 20.7 mph 0.08 in Rain Light Rain
1:36 PM 66.9 °F - 64.9 °F 93% 29.51 in 4.0 mi SW 8.1 mph 20.7 mph 0.08 in Rain Light Rain
1:48 PM 68.0 °F - 64.4 °F 88% 29.50 in 7.0 mi SW 5.8 mph - 0.09 in Rain Light Rain
1:53 PM 66.9 °F - 64.9 °F 93% 29.49 in 4.0 mi Variable 4.6 mph - 0.10 in Rain Rain
2:06 PM 66.9 °F - 64.9 °F 93% 29.48 in 1.0 mi Variable 3.5 mph - 0.08 in Rain Heavy Rain
2:28 PM 66.9 °F - 64.9 °F 93% 29.47 in 0.2 mi WSW 6.9 mph - 0.42 in Fog , Rain Heavy Rain
2:36 PM 66.0 °F - 64.9 °F 96% 29.48 in 0.2 mi WSW 12.7 mph - 0.73 in Fog , Rain Heavy Rain
2:46 PM 66.9 °F - 64.0 °F 90% 29.47 in 0.8 mi SW 13.8 mph 23.0 mph 0.81 in Rain Rain
2:49 PM 66.2 °F - 64.4 °F 94% 29.47 in 2.0 mi SW 13.8 mph 23.0 mph 0.81 in Rain Rain
2:53 PM 66.9 °F - 64.0 °F 90% 29.47 in 4.0 mi SW 13.8 mph 21.9 mph 0.83 in Rain Rain
3:06 PM 66.0 °F - 64.0 °F 93% 29.48 in 2.0 mi SW 18.4 mph 27.6 mph 0.08 in Rain Rain
3:08 PM 66.0 °F - 64.0 °F 93% 29.47 in 3.0 mi SW 18.4 mph 29.9 mph 0.08 in Rain Rain
3:33 PM 66.0 °F - 63.0 °F 90% 29.48 in 10.0 mi SW 13.8 mph 24.2 mph 0.10 in Rain Light Rain
3:53 PM 63.0 °F - 60.1 °F 90% 29.50 in 6.0 mi West 27.6 mph 40.3 mph 0.11 in Rain Light Rain
4:09 PM 62.1 °F - 59.0 °F 90% 29.52 in 9.0 mi West 23.0 mph 32.2 mph 0.01 in Rain Light Rain
4:20 PM 61.0 °F - 57.9 °F 90% 29.52 in 10.0 mi West 17.3 mph 27.6 mph 0.01 in Rain Light Rain
4:53 PM 59.0 °F - 55.0 °F 87% 29.55 in 10.0 mi West 23.0 mph 33.4 mph 0.01 in   Overcast
5:46 PM 52.0 °F - 48.9 °F 89% 29.63 in 9.0 mi West 27.6 mph 38.0 mph 0.01 in Rain Light Rain
5:53 PM 50.0 °F - 46.9 °F 89% 29.63 in 5.0 mi West 20.7 mph 38.0 mph 0.01 in Rain Light Rain
6:42 PM 46.9 °F - 43.0 °F 86% 29.67 in 10.0 mi WSW 26.5 mph 36.8 mph 0.00 in   Overcast
6:53 PM 46.9 °F - 41.0 °F 80% 29.68 in 10.0 mi West 24.2 mph 39.1 mph 0.00 in   Overcast
7:11 PM 44.1 °F 35.0 °F 39.9 °F 85% 29.71 in 5.0 mi West 24.2 mph 39.1 mph 0.00 in Rain Light Rain
7:50 PM 42.8 °F 33.5 °F 37.4 °F 81% 29.77 in 10.0 mi WSW 23.0 mph 35.7 mph 0.00 in   Overcast
7:53 PM 42.1 °F 32.1 °F 37.0 °F 82% 29.78 in 10.0 mi WSW 25.3 mph 39.1 mph 0.00 in   Overcast
8:28 PM 41.0 °F 30.5 °F 33.1 °F 73% 29.80 in 10.0 mi WSW 26.5 mph 39.1 mph N/A   Mostly Cloudy
8:53 PM 39.9 °F 29.2 °F 32.0 °F 73% 29.83 in 10.0 mi WSW 25.3 mph 38.0 mph 0.00 in Rain Light Rain
9:53 PM 37.9 °F 26.6 °F 30.0 °F 73% 29.88 in 10.0 mi WSW 25.3 mph 42.6 mph 0.00 in   Overcast
10:53 PM 36.0 °F 23.7 °F 28.0 °F 73% 29.94 in 10.0 mi WSW 26.5 mph 41.4 mph 0.00 in   Overcast
11:53 PM 36.0 °F 26.0 °F 28.0 °F 73% 29.98 in 10.0 mi WSW 17.3 mph 28.8 mph N/A   Overcast